User: anonymous   Login
Location: Unspecified
(31.1500°N, 0.0000°E)
Time: 13:06:32
(UTC+00:00)
Language:

Orbcomm G2 (FM04) - Orbit

View from above orbital plane
View from above orbital plane
View from above satellite
View from above satellite

Ground track
Ground track

The orbit is defined by the following mean orbital elements,

1 25159U          26087.70735439 +.00000000 +00000-0 +38032-3 0 00005
2 25159 107.9603   3.8241 0038470 107.7162 252.8183 14.35569350    04
Epoch (UTC): 28 March 2026 16:58:35
Eccentricity: 0.0038470
inclination: 107.9603°
perigee height: 746 km
apogee height: 801 km
right ascension of ascending node: 3.8241°
argument of perigee: 107.7162°
revolutions per day: 14.35569350
mean anomaly at epoch: 252.8183°

The dashed part of the orbit path shows where the satellite is in the earth's shadow,  

DLR